2023/02/16 00:00:00,23.1,-3.2
2023/02/16 00:10:00,23.0,-3.2
2023/02/16 00:20:00,23.0,-2.6
2023/02/16 00:30:00,22.9,-3.2
2023/02/16 00:40:00,23.0,-3.1
2023/02/16 00:50:00,23.1,-3.2
2023/02/16 01:00:00,23.1,-3.3
2023/02/16 01:10:00,23.0,-2.9
2023/02/16 01:20:00,23.0,-2.4
2023/02/16 01:30:00,23.0,-3.1
2023/02/16 01:40:00,22.9,-3.3
2023/02/16 01:50:00,22.8,-3.0
2023/02/16 02:00:00,22.8,-2.5
2023/02/16 02:10:00,22.8,-2.8
2023/02/16 02:20:00,22.8,-3.0
2023/02/16 02:30:00,22.8,-2.7
2023/02/16 02:40:00,22.7,-2.9
2023/02/16 02:50:00,22.7,-2.8
2023/02/16 03:00:00,22.6,-2.7
2023/02/16 03:10:00,22.6,-3.0
2023/02/16 03:20:00,22.6,-2.8
2023/02/16 03:30:00,22.5,-2.8
2023/02/16 03:40:00,22.5,-3.0
2023/02/16 03:50:00,22.4,-2.7
2023/02/16 04:00:00,22.5,-2.4
2023/02/16 04:10:00,22.4,-2.8
2023/02/16 04:20:00,22.3,-3.1
2023/02/16 04:30:00,22.3,-3.3
2023/02/16 04:40:00,22.3,-3.3
2023/02/16 04:50:00,22.2,-3.3
2023/02/16 05:00:00,22.2,-3.1
2023/02/16 05:10:00,22.2,-2.9
2023/02/16 05:20:00,22.1,-2.8
2023/02/16 05:30:00,22.2,-2.9
2023/02/16 05:40:00,22.2,-3.1
2023/02/16 05:50:00,22.1,-3.0
2023/02/16 06:00:00,22.1,-2.9
2023/02/16 06:10:00,22.1,-3.0
2023/02/16 06:20:00,22.1,-2.8
2023/02/16 06:30:00,22.1,-3.0
2023/02/16 06:40:00,22.1,-3.0
2023/02/16 06:50:00,22.1,-2.9
2023/02/16 07:00:00,22.0,-2.8
2023/02/16 07:10:00,22.0,-2.8
2023/02/16 07:20:00,21.9,-2.9
2023/02/16 07:30:00,21.9,-2.8
2023/02/16 07:40:00,21.9,-2.5
2023/02/16 07:50:00,21.9,-2.4
2023/02/16 08:00:00,21.9,-2.1
2023/02/16 08:10:00,22.0,-1.9
2023/02/16 08:20:00,22.0,-1.2
2023/02/16 08:30:00,22.1,-0.8
2023/02/16 08:40:00,22.1,-1.1
2023/02/16 08:50:00,22.0,-0.9
2023/02/16 09:00:00,21.9,-1.2
2023/02/16 09:10:00,21.9,-0.8
2023/02/16 09:20:00,21.9,-1.0
2023/02/16 09:30:00,21.9,-0.7
2023/02/16 09:40:00,21.9,-0.9
2023/02/16 09:50:00,21.9,-0.8
2023/02/16 10:00:00,21.9,-0.7
2023/02/16 10:10:00,21.9,-0.7
2023/02/16 10:20:00,21.8,-0.2
2023/02/16 10:30:00,21.8,-0.3
2023/02/16 10:40:00,21.8, 0.0
2023/02/16 10:50:00,21.8, 0.1
2023/02/16 11:00:00,21.9, 0.2
2023/02/16 11:10:00,21.8, 0.4
2023/02/16 11:20:00,21.9, 0.4
2023/02/16 11:30:00,22.0, 1.3
2023/02/16 11:40:00,21.9, 1.4
2023/02/16 11:50:00,22.0, 1.4
2023/02/16 12:00:00,21.9, 1.6
2023/02/16 12:10:00,21.8, 1.9
2023/02/16 12:20:00,21.8, 1.8
2023/02/16 12:30:00,21.7, 3.1
2023/02/16 12:40:00,21.6, 2.3
2023/02/16 12:50:00,21.5, 2.4
2023/02/16 13:00:00,21.4, 2.5
2023/02/16 13:10:00,21.4, 2.4
2023/02/16 13:20:00,21.4, 2.4
2023/02/16 13:30:00,21.4, 2.9
2023/02/16 13:40:00,21.3, 2.8
2023/02/16 13:50:00,21.4, 3.9
2023/02/16 14:00:00,21.4, 4.1
2023/02/16 14:10:00,21.2, 3.9
2023/02/16 14:20:00,22.1, 5.0
2023/02/16 14:30:00,22.3, 5.0
2023/02/16 14:40:00,21.9, 5.5
2023/02/16 14:50:00,21.2, 5.7
2023/02/16 15:00:00,20.9, 6.5
2023/02/16 15:10:00,19.9, 7.2
2023/02/16 15:20:00,18.5, 4.8
2023/02/16 15:30:00,18.2, 5.1
2023/02/16 15:40:00,18.2, 7.4
2023/02/16 15:50:00,18.7, 8.7
2023/02/16 16:00:00,18.5, 8.7
2023/02/16 16:10:00,18.3, 9.2
2023/02/16 16:20:00,18.0, 9.9
2023/02/16 16:30:00,17.7,10.6
2023/02/16 16:40:00,17.5, 8.6
2023/02/16 16:50:00,17.3, 6.8
2023/02/16 17:00:00,17.1, 5.8
2023/02/16 17:10:00,17.0, 4.9
2023/02/16 17:20:00,17.0, 3.8
2023/02/16 17:30:00,16.8, 2.2
2023/02/16 17:40:00,16.8, 0.7
2023/02/16 17:50:00,16.6,-1.0
2023/02/16 18:00:00,16.6,-1.5
2023/02/16 18:10:00,16.6,-1.9
2023/02/16 18:20:00,16.5,-2.2
2023/02/16 18:30:00,16.5,-2.4
2023/02/16 18:40:00,16.5,-2.5
2023/02/16 18:50:00,16.5,-2.9
2023/02/16 19:00:00,16.5,-2.9
2023/02/16 19:10:00,16.5,-2.9
2023/02/16 19:20:00,16.5,-2.9
2023/02/16 19:30:00,16.5,-3.2
2023/02/16 19:40:00,16.5,-3.3
2023/02/16 19:50:00,16.5,-3.5
2023/02/16 20:00:00,16.5,-3.6
2023/02/16 20:10:00,16.5,-3.7
2023/02/16 20:20:00,16.5,-3.9
2023/02/16 20:30:00,16.5,-3.9
2023/02/16 20:40:00,16.5,-3.8
2023/02/16 20:50:00,16.5,-3.7
2023/02/16 21:00:00,16.5,-3.7
2023/02/16 21:10:00,16.5,-3.5
2023/02/16 21:20:00,16.5,-4.0
2023/02/16 21:30:00,16.5,-3.9
2023/02/16 21:40:00,16.5,-3.9
2023/02/16 21:50:00,16.5,-3.9
2023/02/16 22:00:00,16.5,-3.6
2023/02/16 22:10:00,16.5,-3.9
2023/02/16 22:20:00,16.5,-4.1
2023/02/16 22:30:00,16.5,-4.2
2023/02/16 22:40:00,16.5,-4.3
2023/02/16 22:50:00,16.5,-4.3
2023/02/16 23:00:00,16.5,-4.3
2023/02/16 23:10:00,16.5,-4.0
2023/02/16 23:20:00,16.5,-4.6
2023/02/16 23:30:00,16.6,-4.4
2023/02/16 23:40:00,16.6,-4.5
2023/02/16 23:50:00,16.5,-4.7
